EW6167 Weather Reports


time (UTC)temp
C
wind
direction
speed
KPH
gust
KPH
rain 1hr
cm
rain 24hr
cm
rain mn
cm
humidity
%
barometer
mb
20260903101102 14 145 27.4 0.0 0.00 0.00 0.00 32 1002.5
20260903100511 14 177 27.4 0.0 0.00 0.00 0.00 32 1002.3
20260903100028 14 171 27.4 0.0 0.00 0.00 0.00 32 1002.1
20260903095539 14 178 27.4 0.0 0.00 0.00 0.00 32 1002.1
20260903095048 14 150 27.4 0.0 0.00 0.00 0.00 31 1002.1
20260903094505 14 135 30.6 0.0 0.00 0.00 0.00 31 1002.1
20260903094027 15 168 29.0 0.0 0.00 0.00 0.00 31 1002.1
20260903093542 14 171 25.7 0.0 0.00 0.00 0.00 31 1002.2
20260903093102 14 173 25.7 0.0 0.00 0.00 0.00 31 1002.2
20260903092517 14 126 27.4 0.0 0.00 0.00 0.00 31 1002.2
20260903092028 14 126 25.7 0.0 0.00 0.00 0.00 30 1002.2
20260903091541 14 149 25.7 0.0 0.00 0.00 0.00 30 1002.0
20260903091054 14 173 27.4 0.0 0.00 0.00 0.00 29 1002.1
20260903090508 14 175 22.5 0.0 0.00 0.00 0.00 30 1002.3
20260903090015 14 146 22.5 0.0 0.00 0.00 0.00 29 1002.5
20260903085528 14 169 24.1 0.0 0.00 0.00 0.00 29 1002.6
20260903085047 14 179 22.5 0.0 0.00 0.00 0.00 29 1002.7
20260903084557 14 148 20.9 0.0 0.00 0.00 0.00 29 1002.7
20260903084006 14 165 22.5 0.0 0.00 0.00 0.00 28 1002.7
20260903083528 14 130 24.1 0.0 0.00 0.00 0.00 28 1002.7
20260903083047 14 167 24.1 0.0 0.00 0.00 0.00 28 1002.7
20260903082558 14 169 24.1 0.0 0.00 0.00 0.00 28 1002.8
20260903082002 14 176 24.1 0.0 0.00 0.00 0.00 28 1002.9
20260903081534 14 163 24.1 0.0 0.00 0.00 0.00 28 1002.8
20260903081040 14 133 24.1 0.0 0.00 0.00 0.00 28 1002.9
20260903080556 14 161 25.7 0.0 0.00 0.00 0.00 27 1002.7
20260903080009 14 152 27.4 0.0 0.00 0.00 0.00 27 1002.9
20260903075535 14 169 27.4 0.0 0.00 0.00 0.00 27 1002.7
20260903075040 14 172 25.7 0.0 0.00 0.00 0.00 28 1002.7
20260903074552 14 148 22.5 0.0 0.00 0.00 0.00 28 1002.7
20260903074008 13 170 22.5 0.0 0.00 0.00 0.00 28 1002.7
20260903073533 13 163 22.5 0.0 0.00 0.00 0.00 28 1002.7
20260903073058 13 188 22.5 0.0 0.00 0.00 0.00 28 1002.7
20260903072557 13 161 20.9 0.0 0.00 0.00 0.00 29 1002.7
20260903072009 13 194 20.9 0.0 0.00 0.00 0.00 29 1002.8
20260903071532 13 190 25.7 0.0 0.00 0.00 0.00 29 1002.8
20260903071052 14 167 27.4 0.0 0.00 0.00 0.00 27 1002.8
20260903070557 14 170 25.7 0.0 0.00 0.00 0.00 27 1002.9
20260903070003 13 166 20.9 0.0 0.00 0.00 0.00 28 1002.7
20260903065517 13 165 19.3 0.0 0.00 0.00 0.00 29 1002.7
20260903065028 13 192 20.9 0.0 0.00 0.00 0.00 28 1002.7
20260903064537 13 165 22.5 0.0 0.00 0.00 0.00 28 1002.7
20260903064046 13 180 22.5 0.0 0.00 0.00 0.00 28 1002.7
20260903063553 13 198 22.5 0.0 0.00 0.00 0.00 29 1002.8
20260903063008 13 165 20.9 0.0 0.00 0.00 0.00 29 1002.8
20260903062516 13 182 22.5 0.0 0.00 0.00 0.00 29 1002.8
20260903062025 13 174 22.5 0.0 0.00 0.00 0.00 30 1002.8
20260903061546 13 169 24.1 0.0 0.00 0.00 0.00 30 1002.8
20260903061057 13 152 24.1 0.0 0.00 0.00 0.00 30 1002.8
20260903060517 13 165 22.5 0.0 0.00 0.00 0.00 29 1002.8
20260903060033 13 175 22.5 0.0 0.00 0.00 0.05 29 1002.6
20260903055548 13 119 24.1 0.0 0.00 0.00 0.05 29 1002.6
20260903055055 14 154 25.7 0.0 0.00 0.00 0.05 28 1002.4
20260903054503 14 148 22.5 0.0 0.00 0.00 0.05 28 1002.4
20260903054031 13 148 19.3 0.0 0.00 0.00 0.05 28 1002.5
20260903053553 14 153 17.7 0.0 0.00 0.00 0.05 28 1002.6
20260903053102 14 167 20.9 0.0 0.00 0.00 0.05 27 1002.6
20260903052521 14 152 19.3 0.0 0.00 0.00 0.05 27 1002.6
20260903052040 14 140 17.7 0.0 0.00 0.00 0.05 27 1002.6
20260903051551 14 169 17.7 0.0 0.00 0.00 0.05 27 1002.8
20260903051007 14 176 17.7 0.0 0.00 0.00 0.05 26 1002.8
20260903050529 14 119 16.1 0.0 0.00 0.00 0.05 26 1002.7
20260903050036 14 184 16.1 0.0 0.00 0.00 0.05 26 1002.8
20260903045556 15 180 16.1 0.0 0.00 0.00 0.05 26 1002.8
20260903045014 14 159 14.5 0.0 0.00 0.00 0.05 26 1003.0
20260903044530 14 180 14.5 0.0 0.00 0.00 0.05 26 1003.2
20260903044043 15 145 14.5 0.0 0.00 0.00 0.05 26 1003.2
20260903043558 15 138 16.1 0.0 0.00 0.00 0.05 25 1003.3
20260903043020 15 170 17.7 0.0 0.00 0.00 0.05 25 1003.3
20260903042531 15 149 19.3 0.0 0.00 0.00 0.05 25 1003.4
20260903042054 15 157 20.9 0.0 0.00 0.00 0.05 25 1003.5
20260903041509 15 168 17.7 0.0 0.00 0.00 0.05 25 1003.4
20260903041031 15 172 16.1 0.0 0.00 0.00 0.05 25 1003.4
20260903040548 15 132 17.7 0.0 0.00 0.00 0.05 25 1003.5
20260903040104 15 167 19.3 0.0 0.00 0.00 0.05 25 1003.4
20260903035505 15 141 19.3 0.0 0.00 0.00 0.05 25 1003.2
20260903035024 15 192 19.3 0.0 0.00 0.00 0.05 26 1003.2
20260903034543 15 140 19.3 0.0 0.00 0.00 0.05 25 1003.2
20260903034103 15 178 19.3 0.0 0.00 0.00 0.05 25 1003.0
20260903033506 15 156 19.3 0.0 0.00 0.00 0.05 25 1003.0
20260903033025 15 167 22.5 0.0 0.00 0.00 0.05 24 1003.0
20260903032539 15 162 20.9 0.0 0.00 0.00 0.05 24 1003.1
20260903032057 15 144 19.3 0.0 0.00 0.00 0.05 24 1003.1
20260903031521 16 168 17.7 0.0 0.00 0.00 0.05 24 1003.1
20260903031023 16 175 17.7 0.0 0.00 0.00 0.05 24 1003.2
20260903030535 16 138 19.3 0.0 0.00 0.00 0.05 24 1003.2
20260903030045 16 146 20.9 0.0 0.00 0.00 0.05 23 1003.2
20260903025547 16 164 22.5 0.0 0.00 0.00 0.05 23 1003.2
20260903025053 16 136 24.1 0.0 0.00 0.00 0.05 23 1002.9
20260903024504 16 131 25.7 0.0 0.00 0.00 0.05 23 1002.9
20260903024012 16 160 25.7 0.0 0.00 0.00 0.05 23 1002.8
20260903023537 16 153 25.7 0.0 0.00 0.00 0.05 23 1002.5
20260903023058 16 139 25.7 0.0 0.00 0.00 0.05 23 1002.5
20260903022554 16 178 25.7 0.0 0.00 0.00 0.05 23 1002.6
20260903022005 16 197 27.4 0.0 0.00 0.00 0.05 23 1002.7
20260903021543 17 198 29.0 0.0 0.00 0.00 0.05 23 1002.7
20260903021044 17 178 30.6 0.0 0.00 0.00 0.05 22 1002.5
20260903020556 17 132 29.0 0.0 0.00 0.00 0.05 22 1002.4
20260903020007 17 146 30.6 0.0 0.00 0.00 0.05 22 1002.3
20260903015528 17 180 32.2 0.0 0.00 0.00 0.05 22 1002.5
20260903015046 17 168 32.2 0.0 0.00 0.00 0.05 21 1002.6
20260903014555 17 152 32.2 0.0 0.00 0.00 0.05 21 1002.6
20260903014004 17 186 32.2 0.0 0.00 0.00 0.05 21 1002.6
20260903013515 18 171 32.2 0.0 0.00 0.00 0.05 20 1002.6
20260903013034 18 188 33.8 0.0 0.00 0.00 0.05 20 1002.6
20260903012546 18 170 33.8 0.0 0.00 0.00 0.05 19 1002.3
20260903012055 18 159 32.2 0.0 0.00 0.00 0.05 19 1002.4
20260903011605 18 137 32.2 0.0 0.00 0.00 0.05 20 1002.4
20260903011009 18 190 30.6 0.0 0.00 0.00 0.05 19 1002.4
20260903010536 18 132 29.0 0.0 0.00 0.00 0.05 19 1002.2
20260903010052 19 168 27.4 0.0 0.00 0.00 0.05 19 1002.1
20260903005503 19 166 27.4 0.0 0.00 0.00 0.05 18 1002.1
20260903005021 19 133 29.0 0.0 0.00 0.00 0.05 18 1002.0
20260903004541 19 172 30.6 0.0 0.00 0.00 0.05 18 1002.0
20260903004048 19 178 32.2 0.0 0.00 0.00 0.05 18 1002.1
20260903003557 19 171 30.6 0.0 0.00 0.00 0.05 18 1001.9
20260903003014 19 130 32.2 0.0 0.00 0.00 0.05 18 1002.0
20260903002525 20 196 33.8 0.0 0.00 0.00 0.05 18 1002.1
20260903002029 20 162 32.2 0.0 0.00 0.00 0.05 18 1002.1
20260903001547 20 182 30.6 0.0 0.00 0.00 0.05 18 1001.9
20260903001008 20 167 29.0 0.0 0.00 0.00 0.05 18 1001.7
20260903000531 21 184 29.0 0.0 0.00 0.00 0.05 17 1001.8
20260903000036 20 171 30.6 0.0 0.00 0.00 0.05 18 1001.8
20260902235542 20 163 30.6 0.0 0.00 0.00 0.05 17 1001.8
20260902235056 21 182 32.2 0.0 0.00 0.00 0.05 17 1001.9
20260902234504 21 178 33.8 0.0 0.00 0.00 0.05 16 1001.8
20260902234023 20 201 33.8 0.0 0.00 0.00 0.05 17 1001.8
20260902233543 20 159 33.8 0.0 0.00 0.00 0.05 16 1001.8
20260902233052 21 174 30.6 0.0 0.00 0.00 0.05 16 1001.9
20260902232512 20 182 29.0 0.0 0.00 0.00 0.05 16 1001.8
20260902232038 20 204 30.6 0.0 0.00 0.00 0.05 16 1001.9
20260902231558 20 144 32.2 0.0 0.00 0.00 0.05 16 1001.9
20260902231105 20 188 35.4 0.0 0.00 0.00 0.05 16 1001.8
20260902230504 20 206 37.0 0.0 0.00 0.00 0.05 16 1002.0
20260902230027 20 185 35.4 0.0 0.00 0.00 0.05 15 1001.9
20260902225542 21 186 35.4 0.0 0.00 0.00 0.05 16 1002.1
20260902225053 21 180 35.4 0.0 0.00 0.00 0.05 16 1002.1
20260902224509 22 198 33.8 0.0 0.00 0.00 0.05 15 1002.0
20260902224031 22 193 32.2 0.0 0.00 0.00 0.05 16 1001.9
20260902223553 22 182 29.0 0.0 0.00 0.00 0.05 17 1002.0
20260902223004 22 219 30.6 0.0 0.00 0.00 0.05 18 1001.6
20260902222515 21 202 33.8 0.0 0.00 0.00 0.05 19 1001.7
20260902222033 21 196 33.8 0.0 0.00 0.00 0.05 19 1001.9
20260902221552 21 148 33.8 0.0 0.00 0.00 0.05 19 1001.6
20260902221100 21 116 32.2 0.0 0.00 0.00 0.05 19 1001.8
20260902220515 22 181 33.8 0.0 0.00 0.00 0.05 21 1001.9
20260902220035 22 219 33.8 0.0 0.00 0.00 0.05 20 1001.6
20260902215546 22 203 35.4 0.0 0.00 0.00 0.05 20 1001.6
20260902215056 22 159 38.6 0.0 0.00 0.00 0.05 19 1001.6
20260902214501 22 177 37.0 0.0 0.00 0.00 0.05 20 1001.5
20260902214013 22 215 32.2 0.0 0.00 0.00 0.05 20 1001.4
20260902213530 22 203 33.8 0.0 0.00 0.00 0.05 22 1001.3
20260902213050 22 186 35.4 0.0 0.00 0.00 0.05 22 1001.2
20260902212552 22 135 35.4 0.0 0.00 0.00 0.05 23 1001.3
20260902212016 21 155 37.0 0.0 0.00 0.00 0.05 24 1001.3
20260902211535 22 168 37.0 0.0 0.00 0.00 0.05 23 1001.4
20260902211052 22 195 38.6 0.0 0.00 0.00 0.05 21 1001.3
20260902210511 22 186 38.6 0.0 0.00 0.00 0.05 21 1001.1
20260902210036 22 194 37.0 0.0 0.00 0.00 0.05 22 1001.2
20260902205543 22 175 33.8 0.0 0.00 0.00 0.05 21 1001.2
20260902205001 22 171 37.0 0.0 0.00 0.00 0.05 21 1001.2
20260902204517 22 222 35.4 0.0 0.00 0.00 0.05 21 1001.2
20260902204033 22 208 33.8 0.0 0.00 0.00 0.05 19 1001.2
20260902203559 22 179 35.4 0.0 0.00 0.00 0.05 20 1001.3
20260902203001 22 187 35.4 0.0 0.00 0.00 0.05 20 1000.9
20260902202522 22 198 38.6 0.0 0.00 0.00 0.05 20 1001.1
20260902202031 22 180 41.8 0.0 0.00 0.00 0.05 19 1000.9
20260902201546 22 205 43.5 0.0 0.00 0.00 0.05 19 1000.8
20260902201006 22 208 41.8 0.0 0.00 0.00 0.05 19 1000.6
20260902200527 22 176 40.2 0.0 0.00 0.00 0.05 19 1000.6
20260902200040 22 150 40.2 0.0 0.00 0.00 0.05 18 1000.8
20260902195555 22 167 40.2 0.0 0.00 0.00 0.05 19 1000.8
20260902195003 22 190 40.2 0.0 0.00 0.00 0.05 19 1000.6
20260902194524 22 188 41.8 0.0 0.00 0.00 0.05 19 1000.8
20260902194035 22 208 43.5 0.0 0.00 0.00 0.05 19 1000.7
20260902193552 22 134 43.5 0.0 0.00 0.00 0.05 19 1000.6
20260902193102 22 173 40.2 0.0 0.00 0.00 0.05 19 1000.9
20260902192513 22 180 40.2 0.0 0.00 0.00 0.05 18 1000.8
20260902192026 22 186 41.8 0.0 0.00 0.00 0.05 19 1000.9
20260902191533 22 204 38.6 0.0 0.00 0.00 0.05 19 1001.0
20260902191044 22 171 38.6 0.0 0.00 0.00 0.05 19 1000.9
20260902190555 22 184 40.2 0.0 0.00 0.00 0.05 19 1000.7
20260902190010 22 167 38.6 0.0 0.00 0.00 0.05 23 1000.8
20260902185527 22 178 37.0 0.0 0.00 0.00 0.05 23 1000.7
20260902185042 22 225 37.0 0.0 0.00 0.00 0.05 26 1000.9
20260902184547 22 150 40.2 0.0 0.00 0.00 0.05 25 1000.8
20260902184100 22 180 41.8 0.0 0.00 0.00 0.05 26 1000.9
20260902183513 22 159 40.2 0.0 0.00 0.00 0.05 27 1000.9
20260902183028 22 168 38.6 0.0 0.00 0.00 0.05 23 1000.9
20260902182543 22 181 40.2 0.0 0.00 0.00 0.05 26 1001.1
20260902182056 22 186 37.0 0.0 0.00 0.00 0.05 27 1001.3
20260902181504 22 182 33.8 0.0 0.00 0.00 0.05 29 1001.4
20260902181020 22 178 33.8 0.0 0.00 0.00 0.05 30 1001.5
20260902180542 22 175 35.4 0.0 0.00 0.00 0.05 29 1001.2
20260902180054 22 175 33.8 0.0 0.00 0.00 0.05 30 1001.3
20260902175509 22 163 30.6 0.0 0.00 0.00 0.05 31 1001.3
20260902175029 22 198 29.0 0.0 0.00 0.00 0.05 32 1001.5
20260902174537 21 123 29.0 0.0 0.00 0.00 0.05 35 1001.4
20260902174052 21 163 29.0 0.0 0.00 0.00 0.05 37 1001.5
20260902173557 21 170 32.2 0.0 0.00 0.00 0.05 35 1001.7
20260902173015 21 195 37.0 0.0 0.00 0.00 0.05 36 1001.7
20260902172531 21 165 35.4 0.0 0.00 0.00 0.05 35 1001.7
20260902172037 21 183 33.8 0.0 0.00 0.00 0.05 35 1001.5
20260902171555 21 174 32.2 0.0 0.00 0.00 0.05 37 1001.7
20260902171012 21 144 32.2 0.0 0.00 0.00 0.05 36 1001.6
20260902170529 21 205 32.2 0.0 0.00 0.00 0.05 38 1001.8
20260902170042 21 159 29.0 0.0 0.00 0.00 0.05 37 1001.9
20260902165554 20 200 25.7 0.0 0.00 0.00 0.05 42 1001.8
20260902165103 20 171 24.1 0.0 0.00 0.00 0.05 42 1001.7
20260902164515 21 173 25.7 0.0 0.00 0.00 0.05 43 1001.7
20260902164026 20 141 25.7 0.0 0.00 0.00 0.05 43 1001.5
20260902163532 20 157 25.7 0.0 0.00 0.00 0.05 45 1001.6
20260902163039 20 169 25.7 0.0 0.00 0.00 0.05 44 1001.7
20260902162550 20 121 24.1 0.0 0.00 0.00 0.05 45 1001.5
20260902162057 19 169 22.5 0.0 0.00 0.00 0.05 48 1001.8
20260902161505 18 198 24.1 0.0 0.00 0.00 0.05 52 1001.9
20260902161024 18 164 25.7 0.0 0.00 0.00 0.05 52 1002.1
20260902160547 18 178 25.7 0.0 0.00 0.00 0.05 53 1002.1
20260902160055 18 175 25.7 0.0 0.00 0.00 0.05 53 1002.1
20260902155512 18 186 25.7 0.0 0.00 0.00 0.05 54 1001.9
20260902155022 18 180 24.1 0.0 0.00 0.00 0.05 53 1001.9
20260902154536 18 198 24.1 0.0 0.00 0.00 0.05 54 1002.0
20260902154041 17 193 25.7 0.0 0.00 0.00 0.05 55 1001.9
20260902153552 17 165 24.1 0.0 0.00 0.00 0.05 58 1002.0
20260902153007 17 173 22.5 0.0 0.00 0.00 0.05 60 1002.0
20260902152521 16 182 24.1 0.0 0.00 0.00 0.05 61 1002.1
20260902152036 16 174 24.1 0.0 0.00 0.00 0.05 63 1002.1
20260902151547 16 191 22.5 0.0 0.00 0.00 0.05 64 1002.2
20260902151101 16 175 20.9 0.0 0.00 0.00 0.05 65 1002.2
20260902150512 16 196 22.5 0.0 0.00 0.00 0.05 65 1002.3
20260902150022 16 163 22.5 0.0 0.00 0.00 0.05 63 1002.3
20260902145529 16 167 22.5 0.0 0.00 0.00 0.05 63 1002.6
20260902145034 15 178 24.1 0.0 0.00 0.00 0.05 66 1002.7
20260902144545 15 163 25.7 0.0 0.00 0.00 0.05 66 1002.7
20260902144059 15 158 24.1 0.0 0.00 0.00 0.05 68 1002.7
20260902143521 14 149 22.5 0.0 0.00 0.00 0.05 71 1002.7
20260902143037 13 140 22.5 0.0 0.00 0.00 0.05 71 1002.8
20260902142554 13 171 22.5 0.0 0.00 0.00 0.05 72 1002.8
20260902142103 13 153 22.5 0.0 0.00 0.00 0.05 73 1002.7
20260902141514 12 173 19.3 0.0 0.00 0.00 0.05 74 1002.7
20260902141046 12 159 17.7 0.0 0.00 0.00 0.05 74 1002.7
20260902140605 12 161 17.7 0.0 0.00 0.00 0.05 73 1002.7
20260902140021 12 144 20.9 0.0 0.00 0.00 0.05 73 1002.6
20260902135541 12 188 22.5 0.0 0.00 0.00 0.05 73 1002.6
20260902135055 12 157 24.1 0.0 0.00 0.00 0.05 73 1002.7
20260902134513 12 169 22.5 0.0 0.00 0.00 0.05 74 1002.7
20260902134035 12 179 19.3 0.0 0.00 0.00 0.05 75 1002.7
20260902133547 12 137 17.7 0.0 0.00 0.00 0.03 77 1002.7
20260902133058 11 137 17.7 0.0 0.00 0.00 0.03 78 1002.8
20260902132504 11 138 17.7 0.0 0.00 0.00 0.03 78 1002.7
20260902132012 11 146 19.3 0.0 0.00 0.00 0.03 78 1002.7
20260902131535 11 125 17.7 0.0 0.00 0.00 0.03 78 1002.7
20260902131056 11 160 16.1 0.0 0.00 0.00 0.03 79 1002.7
20260902130512 11 189 17.7 0.0 0.00 0.00 0.03 78 1002.8
20260902130032 11 152 14.5 0.0 0.00 0.00 0.03 78 1002.7
20260902125542 11 144 12.9 0.0 0.00 0.00 0.03 79 1002.8
20260902125055 11 170 16.1 0.0 0.00 0.00 0.03 80 1002.8
20260902124509 11 148 19.3 0.0 0.00 0.00 0.03 79 1002.9
20260902124028 11 151 19.3 0.0 0.00 0.00 0.03 79 1002.9
20260902123538 11 163 17.7 0.0 0.00 0.00 0.03 79 1002.8
20260902123049 11 149 17.7 0.0 0.00 0.00 0.03 78 1002.9
20260902122504 11 152 19.3 0.0 0.00 0.00 0.03 79 1002.9
20260902122017 11 168 17.7 0.0 0.00 0.00 0.03 80 1002.9
20260902121526 10 182 12.9 0.0 0.00 0.00 0.03 82 1003.1
20260902121039 10 172 12.9 0.0 0.00 0.00 0.03 83 1003.1
20260902120556 10 210 14.5 0.0 0.00 0.00 0.03 81 1003.2
20260902120006 10 209 12.9 0.0 0.00 0.00 0.03 82 1003.2
20260902115516 10 197 12.9 0.0 0.00 0.00 0.03 84 1003.3
20260902115036 10 160 11.3 0.0 0.00 0.00 0.03 85 1003.4
20260902114615 9 196 11.3 0.0 0.00 0.00 0.03 86 1003.5
20260902114106 9 200 11.3 0.0 0.00 0.00 0.03 88 1003.7
20260902113508 8 203 9.7 0.0 0.00 0.00 0.03 89 1003.9
20260902113017 8 206 9.7 0.0 0.00 0.00 0.03 89 1003.9
20260902112538 8 204 9.7 0.0 0.00 0.00 0.03 89 1004.0
20260902112049 8 205 9.7 0.0 0.00 0.00 0.03 89 1004.0
20260902111510 8 202 11.3 0.0 0.00 0.00 0.03 89 1004.1
20260902111019 8 205 9.7 0.0 0.00 0.00 0.03 89 1004.1
20260902110534 8 226 8.0 0.0 0.00 0.00 0.03 89 1004.3
20260902110050 8 235 6.4 0.0 0.00 0.00 0.03 87 1004.3
20260902105557 8 196 4.8 0.0 0.00 0.00 0.03 86 1004.4
20260902105003 8 179 1.6 0.0 0.00 0.00 0.03 86 1004.4
20260902104532 9 179 3.2 0.0 0.00 0.00 0.03 87 1004.4
20260902104045 8 179 6.4 0.0 0.00 0.00 0.03 88 1004.5
20260902103555 8 179 6.4 0.0 0.00 0.00 0.03 88 1004.4
20260902103019 8 179 8.0 0.0 0.00 0.00 0.03 87 1004.5
20260902102542 8 179 4.8 0.0 0.00 0.00 0.03 86 1004.5
20260902102051 8 178 4.8 0.0 0.00 0.00 0.03 86 1004.5
20260902101508 8 178 6.4 0.0 0.00 0.00 0.03 87 1004.5